Location: Big Meadows
(38.5260°N, 78.4400°W)
Time: 09:24:41
(UTC-04:00)

H-2A R/B - Visible Passes

Search period start: 22 July 2014 00:00
Search period end: 01 August 2014 00:00
Orbit: 735 x 839 km, 98.5° (Epoch: 21 July)

Date Brightness Start Highest point End Pass type
(mag) Time Alt. Az. Time Alt. Az. Time Alt. Az.
22 Jul 3.3 00:33:27 34° W 00:33:27 34° W 00:37:59 10° NNW visible
22 Jul 4.0 22:22:05 14° E 22:23:45 16° ENE 22:27:00 10° NNE visible
23 Jul 2.3 00:02:45 66° W 00:02:45 66° W 00:07:59 10° NNW visible
23 Jul 2.1 23:32:03 66° E 23:32:15 66° ENE 23:37:35 10° N visible
24 Jul 4.4 01:12:43 14° W 01:12:43 14° W 01:15:00 10° WNW visible
24 Jul 3.0 23:01:21 34° E 23:02:01 35° ENE 23:06:51 10° N visible
25 Jul 3.6 00:42:01 28° W 00:42:01 28° W 00:46:01 10° NW visible
25 Jul 3.8 22:30:39 18° E 22:31:55 19° ENE 22:35:37 10° NNE visible
26 Jul 2.6 00:11:19 53° W 00:11:19 53° W 00:16:10 10° NNW visible
26 Jul 2.1 23:40:38 78° ENE 23:40:38 78° ENE 23:45:52 10° N visible
27 Jul 4.6 01:21:17 11° W 01:21:17 11° W 01:22:21 10° WNW visible
27 Jul 2.7 23:09:56 41° E 23:10:14 41° ENE 23:15:13 10° N visible
28 Jul 3.9 00:50:36 23° W 00:50:36 23° W 00:54:00 10° NW visible
28 Jul 3.5 22:39:15 22° E 22:40:06 23° ENE 22:44:08 10° NNE visible
29 Jul 3.0 00:19:55 43° WNW 00:19:55 43° WNW 00:24:18 10° NNW visible
29 Jul 4.2 22:08:33 11° ENE 22:10:06 12° ENE 22:12:02 10° NE visible
29 Jul 2.2 23:49:13 76° NNW 23:49:13 76° NNW 23:54:06 10° NNW visible
30 Jul 2.5 23:18:32 49° ENE 23:18:32 49° ENE 23:23:33 10° N visible
31 Jul 4.1 00:59:12 19° WNW 00:59:12 19° WNW 01:01:53 10° NW visible
31 Jul 3.3 22:47:51 26° ENE 22:48:17 26° ENE 22:52:36 10° NNE visible
